FALCON EYE 2 (47226 NORAD) Tracking and Keplerian Element Data

This shows tracking and keplerian element data for the satellite.

Feedback or suggestion? Click here.




ElementValue
Catalog47226
NameFALCON EYE 2
Epoch Orbit1946
Epoch Day102.18812311
Epoch Year2021
RAAN178.1083
Inclination97.8478
Eccentricity0.0001637
Argument of Perigee81.8553
Mean Anonmoly278.286
Mean Motion14.8489963
Decay Rate8.4E-07
L11 47226U 20090A 21102.18812311 .00000084 00000-0 16131-4 0 9991
L22 47226 97.8478 178.1083 0001637 81.8553 278.2860 14.84899630 19466

Live tracking and technical data element details for FALCON EYE 2 (NORAD 47226). FALCON EYE 2 can be tracked NOW for your location showing map with azimuth and elevation plus other details from your city location.

Track the satellite on the map from your city or location and see movement details for azimuth, elevation, latitude, longitude, range, height, and movement on the map or in text.







IsCatalogInMostPopularTable: catalog: 47226, numindb: 42
Update: records affected: 1



GetName: 47226 FALCON EYE 2

Hit Count: updated at: Tue, 13 Apr 2021 03:57:24 GMT